period_start,C,m1,H,J0,J1,J2,J3,J4,J5,JA,JB,JC,JD,JJ,JK,JN,#
2018-03-08 00:04:26,0.19,12.83,0.00,17.74,21.34,24.54,14.53,51.52,1034.20,2045.47,958.37,1289.10,1454.72,599.82,617.09,59.58,0000 0000 0000 0000 000000
2018-03-08 00:09:27,0.07,12.84,0.00,17.77,21.34,24.55,14.54,51.58,1034.20,2045.49,957.82,1288.99,1454.04,600.06,617.39,59.63,0000 0000 0000 0000 000000
2018-03-08 00:14:28,0.15,12.84,0.00,17.77,21.34,24.56,14.48,51.56,1034.18,2045.41,957.03,1288.52,1453.84,599.95,617.09,59.68,0000 0000 0000 0000 000000
2018-03-08 00:19:30,0.17,12.85,0.00,17.77,21.35,24.59,14.44,51.61,1034.18,2045.34,956.32,1288.02,1453.08,599.52,616.77,59.73,0000 0000 0000 0000 000000
2018-03-08 00:24:31,0.05,12.86,0.00,17.77,21.37,24.60,14.43,51.70,1034.14,2045.34,955.85,1287.96,1452.93,600.23,617.54,59.78,0000 0000 0000 0000 000000
2018-03-08 00:29:32,0.21,12.87,0.00,17.79,21.37,24.56,14.46,51.61,1034.02,2045.26,955.06,1287.31,1452.13,599.91,617.00,59.83,0000 0000 0000 0000 000000
2018-03-08 00:34:34,0.12,12.87,0.00,17.79,21.37,24.60,14.50,51.52,1033.90,2045.19,954.29,1287.00,1451.92,600.30,617.27,59.88,0000 0000 0000 0000 000000
2018-03-08 00:39:35,0.21,12.88,0.00,17.82,21.37,24.61,14.53,51.61,1033.82,2045.15,953.60,1286.60,1451.11,600.28,617.46,59.94,0000 0000 0000 0000 000000
2018-03-08 00:44:36,0.07,12.89,0.00,17.83,21.38,24.60,14.46,51.56,1033.76,2045.21,953.01,1286.05,1451.00,600.00,617.02,59.99,0000 0000 0000 0000 000000
2018-03-08 00:49:38,0.13,12.89,0.00,17.84,21.39,24.60,14.46,51.63,1033.79,2045.22,952.39,1286.00,1450.81,599.58,616.50,60.04,0000 0000 0000 0000 000000
2018-03-08 00:54:39,0.04,12.90,0.00,17.85,21.39,24.59,14.56,51.65,1033.75,2045.15,951.99,1285.98,1450.10,600.06,616.86,60.09,0000 0000 0000 0000 000000
2018-03-08 00:59:40,0.14,10.75,0.00,17.88,21.40,24.63,12.67,44.05,1033.74,2046.29,1468.02,1654.77,1879.42,532.71,544.62,0.00,0000 0000 0000 0000 000002
2018-03-08 01:04:42,0.18,0.00,0.00,17.90,21.42,24.54,14.46,47.52,1033.74,2051.00,3529.57,3128.44,3596.02,599.79,616.41,0.02,0000 0000 0000 0000 000000
2018-03-08 01:09:43,0.18,0.00,0.00,17.93,21.42,24.64,14.46,47.11,1033.73,2051.00,3525.27,3126.23,3593.32,600.14,616.69,0.07,0000 0000 0000 0000 000000
2018-03-08 01:14:44,0.18,0.01,0.00,17.95,21.42,24.65,14.36,46.88,1033.72,2051.00,3521.80,3124.26,3590.65,599.92,616.56,0.12,0000 0000 0000 0000 000000
2018-03-08 01:19:45,0.17,0.02,0.00,17.98,21.42,24.66,14.46,46.76,1033.72,2050.99,3518.51,3122.24,3588.03,600.16,616.52,0.17,0000 0000 0000 0000 000000
2018-03-08 01:24:47,0.15,0.02,0.00,18.02,21.44,24.65,14.41,46.59,1033.71,2050.98,3515.40,3120.29,3585.49,599.79,616.36,0.22,0000 0000 0000 0000 000000
2018-03-08 01:29:48,0.13,0.03,0.00,18.07,21.45,24.65,14.37,46.58,1033.71,2050.98,3512.69,3118.62,3583.46,599.63,615.79,0.27,0000 0000 0000 0000 000000
2018-03-08 01:34:49,0.11,0.03,0.00,18.07,21.47,24.72,14.42,46.52,1033.71,2050.97,3510.14,3116.98,3581.44,600.47,616.80,0.32,0000 0000 0000 0000 000000
2018-03-08 01:39:51,0.10,0.04,0.00,18.09,21.49,24.70,14.49,46.40,1033.71,2050.96,3507.83,3115.62,3579.57,600.20,616.49,0.37,0000 0000 0000 0000 000000
2018-03-08 01:44:52,0.09,0.04,0.00,18.12,21.49,24.69,14.39,46.33,1033.71,2050.95,3505.54,3114.26,3577.70,599.93,616.22,0.42,0000 0000 0000 0000 000000
2018-03-08 01:49:53,0.09,0.05,0.00,18.16,21.52,24.77,14.41,46.28,1033.71,2050.85,3503.24,3112.83,3575.78,599.87,616.13,0.47,0000 0000 0000 0000 000000
2018-03-08 01:54:55,0.06,0.05,0.00,18.19,21.52,24.74,14.37,46.21,1033.71,2050.64,3500.90,3111.45,3573.87,599.90,616.03,0.52,0000 0000 0000 0000 000000
2018-03-08 01:59:56,0.07,0.06,0.00,18.13,21.54,24.77,14.36,46.17,1033.71,2050.31,3498.65,3110.11,3572.05,599.71,615.88,0.57,0000 0000 0000 0000 000000
2018-03-08 02:04:57,0.07,0.06,0.00,17.97,21.54,24.99,14.43,46.26,1033.71,2050.17,3496.63,3108.92,3570.49,600.15,616.76,0.62,0000 0000 0000 0000 000000
2018-03-08 02:09:59,0.07,0.06,0.00,18.15,21.54,24.76,14.37,46.15,1033.71,2050.20,3494.83,3107.86,3569.10,599.84,616.05,0.67,0000 0000 0000 0000 000000
2018-03-08 02:15:00,0.07,0.07,0.00,18.25,21.54,24.76,14.40,46.17,1033.71,2050.16,3492.97,3106.74,3567.60,600.41,616.31,0.72,0000 0000 0000 0000 000000
2018-03-08 02:20:01,0.07,0.07,0.00,18.33,21.54,24.76,14.33,46.12,1033.71,2050.20,3491.22,3105.73,3566.26,600.01,615.78,0.77,0000 0000 0000 0000 000000
2018-03-08 02:25:03,0.07,0.08,0.00,18.32,21.54,24.76,14.39,46.14,1033.71,2050.16,3489.40,3104.57,3564.61,599.82,615.58,0.82,0000 0000 0000 0000 000000
2018-03-08 02:30:04,0.07,0.08,0.00,18.26,21.55,24.71,14.44,46.23,1033.71,2050.05,3487.51,3103.50,3563.04,600.17,615.94,0.87,0000 0000 0000 0000 000000
2018-03-08 02:35:05,0.08,0.08,0.00,18.20,21.54,24.75,14.33,46.13,1033.71,2050.05,3485.32,3102.18,3561.38,599.92,616.03,0.92,0000 0000 0000 0000 000000
2018-03-08 02:40:06,0.09,0.09,0.00,18.13,21.54,24.76,14.51,46.23,1033.71,2050.04,3483.21,3100.88,3559.70,599.83,615.96,0.97,0000 0000 0000 0000 000000
2018-03-08 02:45:08,0.09,0.09,0.00,18.10,21.54,24.80,14.39,46.39,1033.71,2050.04,3481.12,3099.64,3557.98,599.85,616.14,1.02,0000 0000 0000 0000 000000
2018-03-08 02:50:09,0.08,0.10,0.00,18.08,21.54,24.81,14.41,46.23,1033.71,2050.05,3479.00,3098.38,3556.28,599.81,616.17,1.07,0000 0000 0000 0000 000000
2018-03-08 02:55:10,0.09,0.10,0.00,18.06,21.52,24.80,14.29,45.91,1033.71,2050.03,3476.84,3097.10,3554.51,599.54,615.85,1.12,0000 0000 0000 0000 000000
2018-03-08 03:00:11,0.10,0.11,0.00,18.07,21.52,24.80,14.37,45.98,1033.70,2050.02,3474.59,3095.72,3552.73,600.14,616.42,1.17,0000 0000 0000 0000 000000
2018-03-08 03:05:13,0.08,0.11,0.00,18.06,21.52,24.78,14.39,45.95,1033.67,2050.04,3472.45,3094.46,3551.05,600.04,616.36,1.22,0000 0000 0000 0000 000000
2018-03-08 03:10:14,0.10,0.12,0.00,18.07,21.50,24.73,14.48,46.00,1033.64,2050.19,3470.42,3093.32,3549.45,599.84,616.06,1.27,0000 0000 0000 0000 000000
2018-03-08 03:15:15,0.08,0.12,0.00,18.08,21.49,24.75,14.43,45.99,1033.62,2050.21,3468.42,3092.07,3547.79,600.08,616.27,1.32,0000 0000 0000 0000 000000
2018-03-08 03:20:16,0.10,0.12,0.00,18.05,21.49,24.74,14.31,46.02,1033.55,2050.35,3466.46,3090.88,3546.27,599.92,616.18,1.38,0000 0000 0000 0000 000000
2018-03-08 03:25:18,0.10,0.13,0.00,18.08,21.47,24.73,14.45,45.88,1033.46,2050.54,3464.49,3089.71,3544.72,600.41,616.59,1.43,0000 0000 0000 0000 000000
2018-03-08 03:30:19,0.09,0.14,0.00,18.12,21.47,24.77,14.37,45.93,1033.47,2050.68,3462.48,3088.56,3543.16,600.08,616.14,1.48,0000 0000 0000 0000 000000
2018-03-08 03:35:20,0.09,0.14,0.00,18.16,21.47,24.73,14.39,46.03,1033.57,2050.79,3460.38,3087.31,3541.50,600.02,616.06,1.53,0000 0000 0000 0000 000000
2018-03-08 03:40:22,0.10,0.15,0.00,18.22,21.46,24.72,14.37,45.97,1033.53,2050.73,3458.12,3085.87,3539.68,599.97,615.89,1.58,0000 0000 0000 0000 000000
2018-03-08 03:45:23,0.11,0.15,0.00,18.28,21.46,24.70,14.42,46.03,1033.38,2050.86,3456.06,3084.57,3537.90,600.07,615.78,1.63,0000 0000 0000 0000 000000
2018-03-08 03:50:24,0.07,0.15,0.00,18.32,21.47,24.70,14.40,45.97,1033.34,2050.85,3453.89,3083.34,3536.20,599.87,615.53,1.68,0000 0000 0000 0000 000000
2018-03-08 03:55:25,0.10,0.16,0.00,18.20,21.47,24.71,14.55,46.09,1033.28,2050.86,3451.66,3081.89,3534.36,600.54,616.27,1.73,0000 0000 0000 0000 000000
2018-03-08 04:00:27,0.10,0.16,0.00,18.14,21.47,24.71,14.28,46.06,1033.31,2050.92,3449.31,3080.54,3532.49,599.62,615.55,1.78,0000 0000 0000 0000 000000
2018-03-08 04:05:28,0.09,0.17,0.00,18.07,21.46,24.77,14.41,46.11,1033.34,2050.84,3446.86,3078.97,3530.56,600.19,616.19,1.83,0000 0000 0000 0000 000000
2018-03-08 04:10:29,0.12,0.18,0.00,18.04,21.45,24.75,14.44,46.13,1033.29,2050.90,3444.37,3077.53,3528.59,599.97,615.99,1.88,0000 0000 0000 0000 000000
2018-03-08 04:15:31,0.11,0.18,0.00,18.02,21.44,24.80,14.37,46.09,1033.28,2050.89,3441.82,3075.90,3526.55,600.05,616.29,1.93,0000 0000 0000 0000 000000
2018-03-08 04:20:32,0.11,0.19,0.00,18.03,21.44,24.77,14.39,45.97,1033.28,2050.93,3439.34,3074.48,3524.58,599.91,616.04,1.98,0000 0000 0000 0000 000000
2018-03-08 04:25:33,0.09,0.19,0.00,18.05,21.44,24.72,14.36,46.02,1033.24,2050.98,3437.05,3073.05,3522.73,599.88,615.90,2.03,0000 0000 0000 0000 000000
2018-03-08 04:30:34,0.10,0.20,0.00,18.08,21.42,24.70,14.34,46.02,1033.23,2050.97,3434.66,3071.61,3520.80,599.85,615.86,2.08,0000 0000 0000 0000 000000
2018-03-08 04:35:36,0.10,0.20,0.00,18.13,21.42,24.68,14.37,46.02,1033.22,2050.98,3432.22,3070.20,3518.92,599.71,615.63,2.13,0000 0000 0000 0000 000000
2018-03-08 04:40:37,0.11,0.21,0.00,18.16,21.42,24.67,14.41,45.83,1033.23,2050.96,3429.76,3068.68,3516.96,600.22,616.10,2.18,0000 0000 0000 0000 000000
2018-03-08 04:45:38,0.11,0.21,0.00,18.20,21.42,24.67,14.37,45.83,1033.22,2050.93,3427.13,3067.01,3514.81,599.82,615.56,2.23,0000 0000 0000 0000 000000
2018-03-08 04:50:40,0.08,0.22,0.00,18.24,21.43,24.69,14.42,46.00,1033.22,2050.84,3424.55,3065.44,3512.71,600.01,615.62,2.28,0000 0000 0000 0000 000000
2018-03-08 04:55:41,0.11,0.22,0.00,18.28,21.44,24.68,14.40,45.86,1033.22,2050.79,3422.09,3063.94,3510.76,600.21,615.79,2.33,0000 0000 0000 0000 000000
2018-03-08 05:00:42,0.09,0.23,0.00,18.33,21.44,24.69,14.35,45.90,1033.22,2050.73,3419.79,3062.47,3508.83,599.88,615.37,2.38,0000 0000 0000 0000 000000
2018-03-08 05:05:43,0.08,0.23,0.00,18.35,21.45,24.70,14.40,45.88,1033.22,2050.44,3417.17,3060.83,3506.69,599.96,615.50,2.43,0000 0000 0000 0000 000000
2018-03-08 05:10:45,0.09,0.24,0.00,18.39,21.47,24.71,14.35,46.04,1033.22,2050.14,3414.45,3059.16,3504.44,600.04,615.34,2.48,0000 0000 0000 0000 000000
2018-03-08 05:15:46,0.11,0.24,0.00,18.43,21.47,24.72,14.38,45.97,1033.22,2050.11,3411.94,3057.57,3502.43,599.89,615.19,2.53,0000 0000 0000 0000 000000
2018-03-08 05:20:47,0.08,0.25,0.00,18.45,21.49,24.73,14.36,46.01,1033.22,2050.05,3409.60,3056.14,3500.60,600.04,615.33,2.58,0000 0000 0000 0000 000000
2018-03-08 05:25:48,0.10,0.25,0.00,18.48,21.50,24.76,14.39,45.98,1033.22,2050.06,3407.43,3054.76,3498.82,600.40,615.47,2.63,0000 0000 0000 0000 000000
2018-03-08 05:30:50,0.09,0.26,0.00,18.51,21.52,24.77,14.30,45.84,1033.22,2050.03,3405.29,3053.40,3497.06,599.29,614.61,2.68,0000 0000 0000 0000 000000
2018-03-08 05:35:51,0.09,0.26,0.00,18.54,21.53,24.79,14.36,45.90,1033.22,2050.02,3403.09,3052.00,3495.20,599.97,615.00,2.73,0000 0000 0000 0000 000000
2018-03-08 05:40:52,0.10,0.27,0.00,18.57,21.54,24.81,14.35,45.92,1033.22,2050.01,3400.93,3050.61,3493.46,600.07,615.04,2.78,0000 0000 0000 0000 000000
2018-03-08 05:45:54,0.08,0.27,0.00,18.60,21.57,24.84,14.36,45.89,1033.22,2050.00,3398.80,3049.30,3491.66,600.12,614.97,2.83,0000 0000 0000 0000 000000
2018-03-08 05:50:55,0.09,0.28,0.00,18.64,21.58,24.87,14.35,45.93,1033.21,2050.00,3396.71,3047.94,3489.87,599.98,614.76,2.88,0000 0000 0000 0000 000000
2018-03-08 05:55:56,0.09,0.28,0.00,18.67,21.60,24.89,14.30,45.90,1033.19,2049.99,3394.54,3046.54,3488.08,599.62,614.31,2.93,0000 0000 0000 0000 000000
2018-03-08 06:00:58,0.08,0.29,0.00,18.70,21.62,24.91,14.30,45.92,1033.18,2049.98,3392.54,3045.29,3486.35,599.72,614.40,2.98,0000 0000 0000 0000 000000
2018-03-08 06:05:59,0.08,0.29,0.00,18.72,21.64,24.93,14.24,45.89,1033.19,2049.97,3390.68,3043.99,3484.70,599.81,614.36,3.03,0000 0000 0000 0000 000000
2018-03-08 06:11:00,0.08,0.30,0.00,18.74,21.66,24.94,14.46,45.97,1033.20,2049.94,3388.81,3042.73,3483.10,600.43,614.88,3.08,0000 0000 0000 0000 000000
2018-03-08 06:16:01,0.07,0.30,0.00,18.78,21.68,24.97,14.31,45.95,1033.22,2049.81,3386.84,3041.54,3481.43,599.88,614.39,3.13,0000 0000 0000 0000 000000
2018-03-08 06:21:03,0.05,0.30,0.00,18.81,21.70,24.98,14.28,45.89,1033.22,2049.43,3384.81,3040.28,3479.74,599.52,614.15,3.18,0000 0000 0000 0000 000000
2018-03-08 06:26:04,0.07,0.31,0.00,18.83,21.72,25.02,14.32,45.90,1033.22,2049.11,3382.70,3038.89,3477.97,599.87,614.10,3.23,0000 0000 0000 0000 000000
2018-03-08 06:31:06,0.08,0.31,0.00,18.84,21.74,25.03,14.39,45.75,1033.22,2049.02,3380.58,3037.48,3476.21,600.65,615.05,3.28,0000 0000 0000 0000 000000
2018-03-08 06:36:07,0.08,0.31,0.00,18.88,21.77,25.07,14.31,45.61,1033.22,2049.00,3378.61,3036.26,3474.59,600.01,614.33,3.33,0000 0000 0000 0000 000000
2018-03-08 06:41:08,0.09,0.32,0.00,18.89,21.78,25.07,14.37,45.73,1033.22,2049.00,3376.57,3034.90,3472.84,600.38,614.72,3.38,0000 0000 0000 0000 000000
2018-03-08 06:46:10,0.09,0.32,0.00,18.92,21.80,25.10,14.38,45.85,1033.22,2049.00,3374.48,3033.60,3471.10,600.08,614.23,3.43,0000 0000 0000 0000 000000
2018-03-08 06:51:11,0.08,0.33,0.00,18.93,21.83,25.14,14.31,45.90,1033.22,2049.00,3372.43,3032.38,3469.46,600.03,614.32,3.48,0000 0000 0000 0000 000000
2018-03-08 06:56:12,0.09,0.33,0.00,18.93,21.85,25.16,14.25,45.83,1033.22,2049.00,3370.37,3031.06,3467.78,599.89,614.10,3.53,0000 0000 0000 0000 000000
2018-03-08 07:01:13,0.09,0.34,0.00,18.95,21.87,25.18,14.28,45.88,1033.22,2048.96,3368.35,3029.69,3466.07,599.81,614.08,3.58,0000 0000 0000 0000 000000
2018-03-08 07:06:15,0.08,0.34,0.00,18.96,21.89,25.22,14.30,45.70,1033.22,2048.94,3366.33,3028.45,3464.36,599.89,614.12,3.63,0000 0000 0000 0000 000000
2018-03-08 07:11:16,0.07,0.35,0.00,18.97,21.91,25.25,14.27,45.95,1033.22,2048.83,3364.30,3027.17,3462.68,599.86,613.98,3.69,0000 0000 0000 0000 000000
2018-03-08 07:16:18,0.05,0.35,0.00,18.99,21.93,25.29,14.32,45.95,1033.22,2048.42,3362.24,3025.87,3460.95,599.63,613.69,3.74,0000 0000 0000 0000 000000
2018-03-08 07:21:19,0.06,0.35,0.00,19.00,21.94,25.29,14.32,45.85,1033.22,2048.14,3360.28,3024.60,3459.35,600.00,614.05,3.79,0000 0000 0000 0000 000000
2018-03-08 07:26:20,0.08,0.36,0.00,19.00,21.97,25.31,14.34,45.78,1033.22,2048.05,3358.42,3023.50,3457.81,600.04,614.27,3.84,0000 0000 0000 0000 000000
2018-03-08 07:31:21,0.07,0.36,0.00,19.00,21.98,25.31,14.38,45.79,1033.22,2048.04,3356.71,3022.43,3456.50,600.05,614.03,3.89,0000 0000 0000 0000 000000
2018-03-08 07:36:23,0.08,0.36,0.00,19.00,22.00,25.34,14.39,45.61,1033.22,2048.01,3355.01,3021.35,3454.98,600.41,614.39,3.94,0000 0000 0000 0000 000000
2018-03-08 07:41:24,0.07,0.37,0.00,18.99,22.02,25.36,14.26,45.77,1033.22,2048.00,3353.15,3020.21,3453.61,599.54,613.51,3.99,0000 0000 0000 0000 000000
2018-03-08 07:46:25,0.07,0.37,0.00,19.01,22.04,25.38,14.37,45.83,1033.22,2047.99,3351.39,3019.03,3452.07,600.34,614.45,4.04,0000 0000 0000 0000 000000
2018-03-08 07:51:26,0.09,0.38,0.00,18.99,22.05,25.41,14.34,45.88,1033.23,2047.98,3349.55,3017.84,3450.57,600.20,614.38,4.09,0000 0000 0000 0000 000000
2018-03-08 07:56:28,0.07,0.38,0.00,18.99,22.07,25.41,14.33,45.77,1033.23,2047.99,3347.79,3016.77,3449.12,600.13,614.26,4.14,0000 0000 0000 0000 000000
2018-03-08 08:01:29,0.08,0.38,0.00,18.99,22.08,25.44,14.36,45.86,1033.24,2047.98,3345.95,3015.65,3447.68,599.75,613.82,4.19,0000 0000 0000 0000 000000
2018-03-08 08:06:30,0.08,0.39,0.00,18.99,22.09,25.46,14.31,45.95,1033.34,2047.95,3344.09,3014.48,3446.06,599.66,613.83,4.24,0000 0000 0000 0000 000000
2018-03-08 08:11:31,0.06,0.39,0.00,18.98,22.10,25.44,14.30,45.83,1033.55,2047.81,3342.12,3013.23,3444.49,600.11,614.33,4.29,0000 0000 0000 0000 000000
2018-03-08 08:16:32,0.06,0.40,0.00,18.97,22.12,25.47,14.41,45.96,1033.60,2047.67,3340.29,3012.05,3442.94,600.36,614.72,4.34,0000 0000 0000 0000 000000
2018-03-08 08:21:33,0.07,0.40,0.00,18.97,22.12,25.48,14.35,45.93,1033.45,2047.48,3338.42,3010.93,3441.48,600.13,614.31,4.39,0000 0000 0000 0000 000000
2018-03-08 08:26:35,0.07,0.40,0.00,18.96,22.12,25.47,14.37,45.99,1033.66,2047.52,3336.63,3009.81,3440.07,599.83,614.18,4.44,0000 0000 0000 0000 000000
2018-03-08 08:31:36,0.07,0.41,0.00,18.94,22.14,25.50,14.30,45.85,1033.69,2047.16,3334.68,3008.60,3438.53,599.87,614.36,4.49,0000 0000 0000 0000 000000
2018-03-08 08:36:37,0.07,0.41,0.00,18.94,22.14,25.53,14.31,45.77,1033.68,2047.11,3332.74,3007.55,3436.92,599.88,614.42,4.54,0000 0000 0000 0000 000000
2018-03-08 08:41:39,0.08,0.41,0.00,18.92,22.14,25.54,14.33,45.75,1033.70,2047.14,3330.89,3006.48,3435.48,599.73,614.23,4.59,0000 0000 0000 0000 000000
2018-03-08 08:46:40,0.08,0.42,0.00,18.90,22.16,25.54,14.30,45.83,1033.69,2047.09,3328.93,3005.23,3433.76,599.88,614.47,4.64,0000 0000 0000 0000 000000
2018-03-08 08:51:41,0.09,0.42,0.00,18.89,22.17,25.52,14.37,45.77,1033.69,2047.03,3326.86,3003.87,3432.06,600.10,614.68,4.69,0000 0000 0000 0000 000000
2018-03-08 08:56:42,0.09,0.43,0.00,18.88,22.17,25.54,14.40,45.83,1033.71,2047.01,3324.85,3002.71,3430.63,600.15,614.75,4.74,0000 0000 0000 0000 000000
2018-03-08 09:01:43,0.08,0.43,0.00,18.86,22.17,25.54,14.33,45.89,1033.70,2047.02,3322.94,3001.50,3429.13,600.00,614.58,4.79,0000 0000 0000 0000 000000
2018-03-08 09:06:45,0.08,0.44,0.00,18.86,22.17,25.57,14.32,45.82,1033.67,2047.02,3321.06,3000.40,3427.66,599.92,614.61,4.84,0000 0000 0000 0000 000000
2018-03-08 09:11:46,0.07,0.44,0.00,18.83,22.17,25.57,14.34,45.88,1033.69,2047.01,3319.36,2999.31,3426.15,599.58,614.30,4.89,0000 0000 0000 0000 000000
2018-03-08 09:16:48,0.09,0.44,0.00,18.82,22.18,25.56,14.37,45.98,1033.69,2047.00,3317.35,2997.97,3424.51,599.74,614.37,4.94,0000 0000 0000 0000 000000
2018-03-08 09:21:49,0.09,0.45,0.00,18.81,22.18,25.59,14.36,45.98,1033.70,2047.00,3315.49,2996.77,3422.86,600.00,614.71,4.99,0000 0000 0000 0000 000000
2018-03-08 09:26:50,0.08,0.45,0.00,18.79,22.18,25.55,14.38,46.03,1033.70,2047.00,3313.63,2995.67,3421.42,600.18,614.98,5.04,0000 0000 0000 0000 000000
2018-03-08 09:31:52,0.08,0.46,0.00,18.76,22.18,25.56,14.40,46.02,1033.70,2047.00,3311.72,2994.52,3419.80,600.18,615.03,5.09,0000 0000 0000 0000 000000
2018-03-08 09:36:53,0.08,0.46,0.00,18.77,22.17,25.59,14.38,46.06,1033.71,2047.00,3309.73,2993.34,3418.26,599.73,614.57,5.14,0000 0000 0000 0000 000000
2018-03-08 09:41:54,0.08,0.47,0.00,18.74,22.17,25.58,14.37,46.08,1033.70,2047.00,3307.68,2992.13,3416.63,599.97,615.03,5.19,0000 0000 0000 0000 000000
2018-03-08 09:46:55,0.08,0.47,0.00,18.73,22.17,25.56,14.33,46.06,1033.65,2047.00,3305.75,2990.91,3415.10,599.79,614.67,5.24,0000 0000 0000 0000 000000
2018-03-08 09:51:57,0.10,0.48,0.00,18.72,22.17,25.56,14.36,46.08,1033.63,2047.00,3303.67,2989.63,3413.43,599.84,614.74,5.29,0000 0000 0000 0000 000000
2018-03-08 09:56:58,0.09,0.48,0.00,18.70,22.17,25.55,14.47,46.16,1033.55,2047.00,3301.43,2988.30,3411.67,600.15,614.91,5.34,0000 0000 0000 0000 000000
2018-03-08 10:02:00,0.11,0.49,0.00,18.69,22.17,25.56,14.41,46.11,1033.59,2047.00,3299.14,2986.84,3409.81,599.65,614.69,5.39,0000 0000 0000 0000 000000
2018-03-08 10:07:01,0.09,0.49,0.00,18.68,22.15,25.53,14.39,46.00,1033.56,2047.00,3296.89,2985.53,3407.98,600.31,615.25,5.44,0000 0000 0000 0000 000000
2018-03-08 10:12:02,0.10,0.50,0.00,18.67,22.14,25.52,14.42,45.96,1033.45,2047.00,3294.57,2984.12,3406.25,600.11,615.08,5.49,0000 0000 0000 0000 000000
2018-03-08 10:17:03,0.10,0.50,0.00,18.67,22.14,25.51,14.42,45.97,1033.42,2047.00,3292.21,2982.77,3404.59,600.26,615.19,5.54,0000 0000 0000 0000 000000
2018-03-08 10:22:04,0.09,0.51,0.00,18.64,22.14,25.52,14.42,46.07,1033.32,2047.00,3290.03,2981.49,3402.88,599.79,614.80,5.59,0000 0000 0000 0000 000000
2018-03-08 10:27:05,0.09,0.51,0.00,18.64,22.12,25.57,14.35,46.02,1033.29,2047.00,3287.86,2980.08,3401.10,599.86,614.60,5.64,0000 0000 0000 0000 000000
2018-03-08 10:32:06,0.09,0.52,0.00,18.63,22.12,25.52,14.30,45.99,1033.23,2047.00,3285.82,2978.85,3399.51,599.76,614.57,5.69,0000 0000 0000 0000 000000
2018-03-08 10:37:07,0.10,0.52,0.00,18.60,22.12,25.46,14.40,46.02,1033.25,2047.00,3283.73,2977.62,3397.83,599.81,614.77,5.74,0000 0000 0000 0000 000000
2018-03-08 10:42:09,0.09,0.53,0.00,18.59,22.10,25.47,14.45,46.05,1033.24,2047.00,3281.55,2976.37,3396.19,600.22,615.17,5.79,0000 0000 0000 0000 000000
2018-03-08 10:47:10,0.09,0.53,0.00,18.58,22.09,25.50,14.32,46.05,1033.23,2047.02,3279.49,2975.08,3394.57,599.71,614.71,5.84,0000 0000 0000 0000 000000
2018-03-08 10:52:12,0.09,0.54,0.00,18.56,22.09,25.48,14.39,46.13,1033.24,2047.02,3277.45,2973.84,3393.00,599.99,614.99,5.89,0000 0000 0000 0000 000000
2018-03-08 10:57:13,0.09,0.54,0.00,18.54,22.08,25.49,14.32,45.92,1033.23,2047.01,3275.41,2972.60,3391.44,599.90,614.88,5.94,0000 0000 0000 0000 000000
2018-03-08 11:02:15,0.09,0.55,0.00,18.52,22.07,25.51,14.37,46.06,1033.22,2047.03,3273.42,2971.43,3389.97,599.89,615.05,5.99,0000 0000 0000 0000 000000
2018-03-08 11:07:16,0.08,0.55,0.00,18.49,22.07,25.47,14.36,46.07,1033.22,2047.01,3271.37,2970.21,3388.32,599.72,614.84,6.05,0000 0000 0000 0000 000000
2018-03-08 11:12:17,0.10,0.55,0.00,18.48,22.05,25.43,14.40,45.90,1033.22,2047.03,3269.23,2968.91,3386.63,600.45,615.60,6.10,0000 0000 0000 0000 000000
2018-03-08 11:17:19,0.09,0.56,0.00,18.47,22.04,25.43,14.40,46.03,1033.21,2047.06,3267.16,2967.65,3384.99,600.15,615.39,6.15,0000 0000 0000 0000 000000
2018-03-08 11:22:20,0.09,0.56,0.00,18.47,22.03,25.37,14.37,45.88,1033.18,2047.02,3265.00,2966.28,3383.19,600.45,615.58,6.20,0000 0000 0000 0000 000000
2018-03-08 11:27:21,0.11,0.57,0.00,18.46,22.02,25.35,14.41,45.97,1033.02,2047.02,3262.77,2964.83,3381.25,599.81,614.90,6.25,0000 0000 0000 0000 000000
2018-03-08 11:32:22,0.12,0.58,0.00,18.44,22.00,25.36,14.41,46.01,1032.83,2047.03,3260.14,2963.15,3379.09,600.17,615.23,6.30,0000 0000 0000 0000 000000
2018-03-08 11:37:23,0.12,0.58,0.00,18.43,21.99,25.34,14.35,45.86,1032.75,2047.03,3257.43,2961.55,3377.02,599.90,614.73,6.35,0000 0000 0000 0000 000000
2018-03-08 11:42:24,0.13,0.59,0.00,18.41,21.97,25.31,14.36,46.00,1032.73,2047.03,3254.62,2959.82,3374.87,599.48,614.65,6.40,0000 0000 0000 0000 000000
2018-03-08 11:47:26,0.12,0.59,0.00,18.39,21.95,25.32,14.43,45.91,1032.73,2047.05,3251.78,2958.12,3372.62,600.35,615.41,6.45,0000 0000 0000 0000 000000
2018-03-08 11:52:27,0.12,0.60,0.00,18.38,21.94,25.32,14.42,45.90,1032.73,2047.05,3248.99,2956.40,3370.41,600.26,615.39,6.50,0000 0000 0000 0000 000000
2018-03-08 11:57:28,0.14,0.61,0.00,18.36,21.92,25.30,14.38,45.83,1032.73,2047.15,3246.23,2954.74,3368.30,599.64,614.64,6.55,0000 0000 0000 0000 000000
2018-03-08 12:02:30,0.13,0.61,0.00,18.34,21.90,25.28,14.39,45.91,1032.73,2047.28,3243.57,2953.18,3366.29,599.79,614.90,6.60,0000 0000 0000 0000 000000
2018-03-08 12:07:31,0.13,0.62,0.00,18.33,21.88,25.24,14.37,45.83,1032.73,2047.48,3240.98,2951.59,3364.24,599.62,614.79,6.65,0000 0000 0000 0000 000000
2018-03-08 12:12:32,0.13,0.63,0.00,18.32,21.87,25.24,14.36,45.79,1032.73,2047.66,3238.44,2950.01,3362.32,600.29,615.45,6.70,0000 0000 0000 0000 000000
2018-03-08 12:17:33,0.13,0.63,0.00,18.30,21.84,25.20,14.35,45.82,1032.73,2047.94,3235.93,2948.57,3360.50,600.03,615.30,6.75,0000 0000 0000 0000 000000
2018-03-08 12:22:34,0.11,0.64,0.00,18.28,21.83,25.19,14.39,45.76,1032.69,2047.97,3233.46,2947.04,3358.45,599.86,615.30,6.80,0000 0000 0000 0000 000000
2018-03-08 12:27:35,0.12,0.65,0.00,18.27,21.81,25.22,14.42,45.86,1032.54,2047.97,3230.92,2945.49,3356.39,599.97,615.12,6.85,0000 0000 0000 0000 000000
2018-03-08 12:32:37,0.11,0.65,0.00,18.24,21.79,25.23,14.42,45.96,1032.36,2047.98,3228.36,2943.97,3354.46,599.92,615.07,6.90,0000 0000 0000 0000 000000
2018-03-08 12:37:38,0.11,0.66,0.00,18.22,21.78,25.16,14.46,46.08,1032.27,2047.99,3225.89,2942.52,3352.51,600.16,615.34,6.95,0000 0000 0000 0000 000000
2018-03-08 12:42:39,0.10,0.66,0.00,18.19,21.77,25.20,14.39,46.10,1032.31,2047.99,3223.53,2940.97,3350.64,600.04,615.22,7.00,0000 0000 0000 0000 000000
2018-03-08 12:47:41,0.11,0.67,0.00,18.19,21.74,25.12,14.36,45.95,1032.30,2047.99,3221.20,2939.57,3348.73,600.15,615.38,7.05,0000 0000 0000 0000 000000
2018-03-08 12:52:42,0.11,0.68,0.00,18.17,21.73,25.08,14.40,45.94,1032.25,2048.00,3218.79,2938.11,3346.91,600.06,615.31,7.10,0000 0000 0000 0000 000000
2018-03-08 12:57:43,0.10,0.68,0.00,18.15,21.71,25.07,14.42,45.92,1032.25,2048.00,3216.47,2936.66,3345.13,600.07,615.42,7.15,0000 0000 0000 0000 000000
2018-03-08 13:02:45,0.10,0.69,0.00,18.12,21.69,25.06,14.47,45.95,1032.24,2048.00,3214.13,2935.21,3343.30,600.06,615.40,7.20,0000 0000 0000 0000 000000